User: anonymous   Login
Location: Unspecified
(0.0000°N, 0.0000°E)
Time: 20:46:17
(UTC+00:00)
Language:

DSCS III B-5 - Orbit

View from above orbital plane
View from above orbital plane
View from above satellite
View from above satellite

Ground track
Ground track

The orbit data is extracted from the following two-line orbital elements,

1 16117U 85092C   21136.63513119 -.00000002  00000-0  00000-0 0  9995
2 16117  15.1729   0.5210 0010648  57.5565 129.3580  0.98987406  7335
Epoch (UTC): 16 May 2021 15:14:35
Eccentricity: 0.0010648
inclination: 15.1729°
perigee height: 36105 km
apogee height: 36195 km
right ascension of ascending node: 0.5210°
argument of perigee: 57.5565°
revolutions per day: 0.98987406
mean anomaly at epoch: 129.3580°
orbit number at epoch: 733

The dashed part of the orbit path shows where the satellite is in the earth's shadow,  

DLR